Weather History for KBLV - March, 2014

Change the Weather History Date:

Wednesday, March 19, 2014

  Actual Average Record
Temperature  
Mean Temperature 43 °F -  
Max Temperature 50 °F 56 °F 80 °F (2012)
Min Temperature 33 °F 36 °F 11 °F (1965)
Degree Days  
Heating Degree Days 22    
Moisture  
Dew Point 37 °F    
Average Humidity 71    
Maximum Humidity 96    
Minimum Humidity 53    
Precipitation  
Precipitation 0.00 in - - ()
Sea Level Pressure  
Sea Level Pressure 29.91 in    
Wind  
Wind Speed 15 mph (West)    
Max Wind Speed 25 mph    
Max Gust Speed 32 mph    
Visibility 10 miles    
Events      
Averages and records for this station are not official NWS values.
T = Trace of Precipitation, MM = Missing Value Source: NWS Daily Summary

Daily Weather History Graph

Daily Weather History Graph

Search for Another Location

Airport or City:

Trip Planner

Search our weather history database for the weather conditions in past years. The results will help you decide how hot, cold, wet, or windy it might be!

Date:

Astronomy

Mar. 19, 2014 Rise Set
Actual Time 7:04 AM CDT 7:10 PM CDT
Civil Twilight 6:37 AM CDT 7:36 PM CDT
Nautical Twilight 6:07 AM CDT 8:07 PM CDT
Astronomical Twilight 5:35 AM CDT 8:39 PM CDT
Moon 10:26 PM CDT (3/19) 8:32 AM CDT (3/19)
Length of Visible Light 12h 58m
Length of Day
12h 05m
Waning Gibbous, 91% of the Moon is Illuminated
Mar 19
Waning Gibbous
Mar 23
Last Quarter
Mar 30
New
Apr 7
First Quarter
Apr 15
Full

Hourly Weather History & Observations

Time (CDT) Temp. Windchill Dew Point Humidity Pressure Visibility Wind Dir Wind Speed Gust Speed Precip Events Conditions
12:58 AM 49.8 °F - 43.7 °F 79% 29.67 in 10.0 mi South 18.4 mph 24.2 mph N/A   Clear
1:58 AM 50.4 °F - 43.9 °F 78% 29.67 in 10.0 mi South 17.3 mph 21.9 mph N/A   Clear
2:58 AM 49.1 °F - 44.1 °F 83% 29.66 in 10.0 mi South 13.8 mph - N/A   Clear
3:58 AM 48.6 °F - 44.2 °F 85% 29.66 in 10.0 mi South 11.5 mph - N/A   Clear
4:58 AM 48.6 °F - 44.8 °F 87% 29.68 in 10.0 mi South 9.2 mph - N/A   Mostly Cloudy
5:58 AM 47.1 °F - 44.4 °F 90% 29.69 in 10.0 mi South 9.2 mph - N/A   Clear
6:58 AM 45.5 °F 44.2 °F 44.4 °F 96% 29.72 in 10.0 mi Variable 3.5 mph - N/A   Clear
7:58 AM 47.5 °F - 43.0 °F 84% 29.75 in 10.0 mi West 12.7 mph 24.2 mph N/A   Partly Cloudy
8:23 AM 50.0 °F - 39.2 °F 66% 29.76 in 10.0 mi WNW 16.1 mph 20.7 mph N/A   Mostly Cloudy
8:58 AM 49.8 °F - 39.7 °F 68% 29.79 in 10.0 mi WNW 15.0 mph 25.3 mph N/A   Overcast
9:13 AM 50.0 °F - 41.0 °F 71% 29.79 in 10.0 mi WNW 25.3 mph 32.2 mph N/A   Overcast
9:58 AM 49.5 °F - 40.3 °F 71% 29.86 in 10.0 mi WNW 20.7 mph 27.6 mph N/A   Overcast
10:58 AM 48.4 °F - 39.4 °F 71% 29.91 in 10.0 mi WNW 19.6 mph 29.9 mph N/A   Overcast
11:58 AM 47.8 °F - 36.5 °F 65% 29.96 in 10.0 mi WNW 21.9 mph 28.8 mph N/A   Overcast
12:13 PM 48.2 °F - 35.6 °F 62% 29.94 in 10.0 mi WNW 19.6 mph 24.2 mph N/A   Mostly Cloudy
12:18 PM 48.2 °F - 35.6 °F 62% 29.95 in 10.0 mi West 16.1 mph 24.2 mph N/A   Mostly Cloudy
12:58 PM 46.2 °F 39.5 °F 34.9 °F 65% 30.00 in 10.0 mi WNW 16.1 mph 26.5 mph N/A   Overcast
1:58 PM 46.9 °F - 34.7 °F 62% 30.01 in 10.0 mi West 19.6 mph 27.6 mph N/A   Overcast
2:28 PM 48.2 °F - 33.8 °F 58% 29.99 in 10.0 mi WNW 17.3 mph 23.0 mph N/A   Overcast
2:58 PM 46.9 °F - 34.0 °F 61% 30.03 in 10.0 mi West 16.1 mph 24.2 mph N/A   Overcast
3:58 PM 47.1 °F - 33.8 °F 60% 30.04 in 10.0 mi West 19.6 mph 24.2 mph N/A   Overcast
4:58 PM 47.8 °F - 32.4 °F 55% 30.06 in 10.0 mi WNW 16.1 mph - N/A   Mostly Cloudy
5:58 PM 48.0 °F - 31.6 °F 53% 30.08 in 10.0 mi NW 12.7 mph - N/A   Partly Cloudy
6:58 PM 44.1 °F 38.1 °F 30.9 °F 60% 30.09 in 10.0 mi NW 11.5 mph - N/A   Clear
7:58 PM 41.4 °F - 29.5 °F 63% 30.10 in 10.0 mi NNW 2.3 mph - N/A   Clear
8:58 PM 37.0 °F - 28.6 °F 71% 30.13 in 10.0 mi Calm Calm - N/A   Clear
9:58 PM 38.5 °F 32.1 °F 30.0 °F 72% 30.15 in 10.0 mi NW 9.2 mph - N/A   Clear
10:58 PM 36.5 °F - 28.8 °F 74% 30.16 in 10.0 mi NNW 2.3 mph - N/A   Clear
11:58 PM 33.1 °F - 28.6 °F 84% 30.17 in 10.0 mi Calm Calm - N/A   Clear